Flag for U.S.A. Weather past 2 weeks in Pembroke Pines, Florida, U.S.A.

76 °F

Passing clouds.

Feels Like: 76 °F
Forecast: 73 / 82 °F
Wind: 6 mph from East

Location: North Perry Airport

Current Time: Dec 1, 2015 at 3:43:03 AM

Latest Report: Dec 1, 2015 at 3:02 AM

Visibility: 10 mi

Pressure: 29.99 "Hg

Humidity: 85%

Dew point: 71 °F

Location of Pembroke PinesLocation

Historic Weather in Pembroke Pines — Graph


Pembroke Pines temperature yesterday

Maximum temperature yesterday: 79 °F (at 12:53 PM)
Minimum temperature yesterday: 74 °F (at 6:53 AM)
Average temperature yesterday: 76 °F

Past Weeks' High & Low Weather Summary

High88 °F (Nov 20, 1:53 PM)97% (Nov 17, 12:53 AM)30.30 "Hg (Nov 17, 12:53 AM)
Low61 °F (Nov 24, 3:53 AM)46% (Nov 28, 10:53 AM)29.80 "Hg (Nov 22, 2:53 PM)
Average76 °F74%30.06 "Hg
* Reported Nov 16 1:53 AM — Dec 1 1:53 AM, Pembroke Pines, Weather by CustomWeather, © 2015

Note: Actual official high and low records may vary slightly from our data, if they occured in-between our weather recording intervals... More about our weather records


Pembroke Pines weather history for previous 24 hours

Time TempWeatherWind HumidityBarometerVisibility
1:53 AM
Tue, Dec 1
75 °FClear.6 mph85%30.00 "Hg10 mi
12:53 AM76 °FPassing clouds.7 mph85%30.00 "Hg10 mi
11:53 PM
Mon, Nov 30
75 °FPassing clouds.7 mph88%30.01 "Hg10 mi
10:53 PM75 °FPassing clouds.6 mph88%30.03 "Hg10 mi
9:53 PM74 °FPartly cloudy.No wind94%30.03 "Hg10 mi
8:53 PM75 °FPassing clouds.6 mph90%30.03 "Hg10 mi
8:02 PM75 °FLight rain. Fog.3 mph90%30.03 "Hg5 mi
6:53 PM75 °FPartly cloudy.No wind90%30.01 "Hg10 mi
5:53 PM75 °FLight rain. Mostly cloudy.No wind90%29.99 "Hg10 mi
4:53 PM75 °FMostly cloudy.7 mph90%29.98 "Hg10 mi
3:53 PM77 °FLight rain. Mostly cloudy.13 mph82%29.99 "Hg10 mi
2:53 PM78 °FMostly cloudy.15 mph76%29.99 "Hg10 mi
1:53 PM79 °FMostly cloudy.12 mph74%30.00 "Hg10 mi
12:53 PM79 °FMostly cloudy.17 mph79%30.02 "Hg10 mi
11:53 AM76 °FLight rain. Mostly cloudy.5 mph91%30.04 "Hg10 mi
10:53 AM75 °FLight rain. Fog.10 mph94%30.07 "Hg4 mi
9:53 AM75 °FLight rain. Mostly cloudy.10 mph88%30.07 "Hg10 mi
8:53 AM75 °FMostly cloudy.8 mph90%30.05 "Hg10 mi
7:53 AM75 °FMostly cloudy.6 mph88%30.03 "Hg10 mi
6:53 AM74 °FLight rain. Mostly cloudy.7 mph88%30.01 "Hg9 mi
5:53 AM76 °FMostly cloudy.7 mph80%29.99 "Hg10 mi
4:53 AM75 °FClear.7 mph79%29.98 "Hg10 mi
3:53 AM75 °FClear.9 mph76%29.98 "Hg10 mi
Weather by CustomWeather, © 2015

See weather overviewHow to use our weather pages